This demonstration page uses our WeatherBlox Daily Observations layout. Learn more.

Left ArrowRight Arrow

Hourly Observations for March 23, 2020

Temp ( °F °C ) Dew Point ( °F °C ) Humidity (%) Winds ( mph kmh ) Pressure ( in mb ) Visibility ( mi km ) Precip ( " mm )
12:15 am 00:15 Cloudy 36 2 36 2 100 100 N N/A 30.21 1023 7 11 N/A
12:35 am 00:35 Cloudy 36 2 36 2 100 100 N N/A 30.20 1023 7 11 N/A
12:55 am 00:55 Cloudy 36 2 36 2 100 100 N N/A 30.19 1022 7 11 N/A
1:16 am 01:16 Cloudy 36 2 36 2 100 100 N N/A 30.18 1022 7 11 N/A
1:35 am 01:35 Cloudy 36 2 36 2 100 100 N N/A 30.18 1022 7 11 N/A
1:36 am 01:36 Cloudy 36 2 36 2 100 100 N N/A 30.18 1022 7 11 N/A
1:55 am 01:55 Cloudy 36 2 36 2 100 100 N N/A 30.17 1022 7 11 N/A
2:16 am 02:16 Cloudy 36 2 36 2 100 100 N N/A 30.16 1021 5 8 N/A
2:35 am 02:35 Cloudy 36 2 36 2 100 100 ESE 3 6 30.15 1021 7 11 N/A
2:55 am 02:55 Cloudy 36 2 36 2 100 100 N N/A 30.14 1021 7 11 N/A
3:15 am 03:15 Cloudy 36 2 36 2 100 100 N N/A 30.14 1021 7 11 N/A
3:35 am 03:35 Cloudy 36 2 36 2 100 100 N N/A 30.13 1020 7 11 N/A
3:36 am 03:36 Cloudy 36 2 36 2 100 100 N N/A 30.13 1020 7 11 N/A
3:55 am 03:55 Cloudy 36 2 36 2 100 100 N N/A 30.12 1020 4 6 N/A
4:16 am 04:16 Cloudy 36 2 36 2 100 100 N N/A 30.11 1020 3 4 N/A
4:35 am 04:35 Cloudy 36 2 36 2 100 100 N N/A 30.11 1020 2 3 N/A
4:55 am 04:55 Cloudy 36 2 36 2 100 100 N N/A 30.10 1019 2 3 N/A
5:15 am 05:15 Cloudy 36 2 36 2 100 100 N N/A 30.10 1019 2 2 N/A
5:36 am 05:36 Cloudy 36 2 36 2 100 100 N N/A 30.10 1019 2 3 N/A
5:56 am 05:56 Cloudy 36 2 36 2 100 100 NW 3 6 30.11 1020 3 4 N/A
6:15 am 06:15 Cloudy 36 2 36 2 100 100 NW 3 6 30.11 1020 3 4 N/A
6:36 am 06:36 Cloudy 36 2 36 2 100 100 N N/A 30.12 1020 3 4 N/A
6:55 am 06:55 Cloudy 37 3 37 3 100 100 N N/A 30.11 1020 3 4 N/A
7:15 am 07:15 Cloudy 37 3 37 3 100 100 N N/A 30.12 1020 3 4 N/A
7:35 am 07:35 Cloudy 37 3 37 3 100 100 W 5 7 30.12 1020 3 5 N/A
7:55 am 07:55 Cloudy 37 3 37 3 100 100 WNW 3 6 30.13 1020 3 4 N/A
8:15 am 08:15 Cloudy 37 3 37 3 100 100 WNW 6 9 30.14 1021 4 6 N/A
8:35 am 08:35 Cloudy 37 3 37 3 100 100 WNW 8 13 30.15 1021 5 8 N/A
8:55 am 08:55 Cloudy 37 3 37 3 100 100 NW 5 7 30.15 1021 5 8 N/A
9:16 am 09:16 Cloudy 37 3 37 3 100 100 NW 8 13 30.16 1021 5 8 N/A
9:35 am 09:35 Cloudy 37 3 37 3 100 100 NW 8 13 30.17 1022 7 11 N/A
9:55 am 09:55 Cloudy 37 3 37 3 100 100 NW 10 17 30.18 1022 7 11 N/A
10:15 am 10:15 Cloudy 37 3 37 3 100 100 NNW 12 19 30.19 1023 7 11 N/A
10:35 am 10:35 Cloudy 37 3 37 3 100 100 NNW 14 22 30.19 1023 7 11 N/A
10:55 am 10:55 Cloudy 37 3 37 3 100 100 NNW 12 19 30.19 1023 10 16 N/A
11:15 am 11:15 Cloudy 37 3 37 3 100 100 N 10 17 30.19 1023 10 16 N/A
11:36 am 11:36 Cloudy 37 3 37 3 100 100 N 10 17 30.20 1023 10 16 N/A
11:55 am 11:55 Cloudy 37 3 37 3 100 100 N 8 13 30.21 1023 10 16 N/A
12:16 pm 12:16 Cloudy 37 3 37 3 100 100 NNW 6 9 30.22 1024 10 16 N/A
12:35 pm 12:35 Cloudy 39 4 39 4 100 100 NNW 7 11 30.22 1023 10 16 N/A
12:55 pm 12:55 Cloudy 37 3 37 3 100 100 NNW 6 9 30.22 1024 10 16 N/A
1:15 pm 13:15 Cloudy 39 4 39 4 100 100 NNW 6 9 30.22 1023 10 16 N/A
1:35 pm 13:35 Cloudy 39 4 39 4 100 100 NW 5 7 30.21 1023 10 16 N/A
1:55 pm 13:55 Cloudy 39 4 39 4 100 100 N 3 6 30.21 1023 10 16 N/A
2:15 pm 14:15 Cloudy 39 4 39 4 100 100 N N/A 30.21 1023 10 16 N/A
2:36 pm 14:36 Cloudy 41 5 39 4 93 93 N N/A 30.20 1023 10 16 N/A
2:55 pm 14:55 Cloudy 41 5 39 4 93 93 NNW 5 7 30.19 1022 10 16 N/A
3:16 pm 15:16 Cloudy 41 5 39 4 93 93 WNW 3 6 30.19 1022 10 16 N/A
3:36 pm 15:36 Cloudy 41 5 39 4 93 93 N 5 7 30.19 1022 10 16 N/A
3:55 pm 15:55 Cloudy 41 5 39 4 93 93 WNW 5 7 30.19 1022 10 16 N/A
4:16 pm 16:16 Cloudy 41 5 39 4 93 93 NW 6 9 30.18 1022 10 16 N/A
4:36 pm 16:36 Cloudy 41 5 39 4 93 93 NW 3 6 30.18 1022 10 16 N/A
4:55 pm 16:55 Cloudy 43 6 39 4 87 87 W 7 11 30.18 1022 10 16 N/A
5:15 pm 17:15 Cloudy 43 6 39 4 87 87 WNW 5 7 30.18 1022 10 16 N/A
5:35 pm 17:35 Cloudy 43 6 39 4 87 87 NW 3 6 30.18 1022 10 16 N/A
5:55 pm 17:55 Cloudy 43 6 39 4 87 87 NW 7 11 30.18 1022 10 16 N/A
6:15 pm 18:15 Cloudy 41 5 39 4 93 93 NW 5 7 30.19 1022 10 16 N/A
6:35 pm 18:35 Cloudy 41 5 39 4 93 93 NW 3 6 30.19 1022 10 16 N/A
6:55 pm 18:55 Cloudy 41 5 39 4 93 93 NNW 5 7 30.19 1022 10 16 N/A
7:15 pm 19:15 Cloudy 41 5 39 4 93 93 NNW 7 11 30.19 1022 10 16 N/A
7:35 pm 19:35 Cloudy 39 4 37 3 93 93 NNW 3 6 30.20 1023 10 16 N/A
7:55 pm 19:55 Cloudy 39 4 39 4 100 100 NW 3 6 30.20 1023 10 16 N/A
8:15 pm 20:15 Cloudy 39 4 39 4 100 100 N N/A 30.20 1023 10 16 N/A
8:35 pm 20:35 Cloudy 39 4 39 4 100 100 NNW 3 6 30.20 1023 10 16 N/A
8:55 pm 20:55 Cloudy 39 4 39 4 100 100 NNE 3 6 30.20 1023 10 16 N/A
9:15 pm 21:15 Cloudy 39 4 39 4 100 100 N 5 7 30.21 1023 10 16 N/A
9:35 pm 21:35 Cloudy 39 4 39 4 100 100 NNE 5 7 30.21 1023 10 16 N/A
9:55 pm 21:55 Cloudy 39 4 39 4 100 100 NNW 5 7 30.22 1023 10 16 N/A
10:15 pm 22:15 Cloudy 39 4 39 4 100 100 N N/A 30.22 1023 10 16 N/A
10:35 pm 22:35 Cloudy 39 4 39 4 100 100 NE 3 6 30.22 1023 10 16 N/A
10:55 pm 22:55 Cloudy 39 4 37 3 93 93 NNE 5 7 30.22 1023 10 16 N/A
11:15 pm 23:15 Cloudy 37 3 37 3 100 100 ENE 5 7 30.22 1024 10 16 N/A
11:35 pm 23:35 Cloudy 37 3 37 3 100 100 NNE 6 9 30.21 1023 10 16 N/A
11:55 pm 23:55 Cloudy 37 3 37 3 100 100 ENE 6 9 30.20 1023 10 16 N/A

Powered by AerisWeather